Terminal Aerodrome Forecast
Issued by NWS

Home | Current Version | Previous Version | Text Only | Print | Product List | Glossary On
Versions: 1 2 3 4 5 6 7 8 9 10 11 12 13 14 15 16 17 18 19 20 21 22 23
000
FTUS41 KBOX 311929 AAA
TAFACK
TAF AMD
KACK 311929Z 3119/0118 23010KT P6SM FEW003 FEW030
     FM010000 22007KT 2SM BR BKN003
     FM010200 24007KT 1 1/2SM BR BKN003
     FM010400 31006KT 1/2SM FG BKN003
     FM011100 02011KT P6SM BKN003
     FM011400 03011KT P6SM FEW250=

USA.gov is the U.S. government's official web portal to all federal, state and local government web resources and services.